Weather History for KSLH - April, 2013

Change the Weather History Date:

Friday, April 12, 2013

  Actual Average (KPLN) Record (KPLN)
Temperature  
Mean Temperature 30 °F -  
Max Temperature 32 °F 49 °F 80 °F (1968)
Min Temperature 28 °F 26 °F 12 °F (1950)
Degree Days  
Heating Degree Days 35    
Moisture  
Dew Point 27 °F    
Average Humidity 88    
Maximum Humidity 92    
Minimum Humidity 78    
Precipitation  
Precipitation 0.00 in - - ()
Sea Level Pressure  
Sea Level Pressure 29.70 in    
Wind  
Wind Speed 20 mph (ENE)    
Max Wind Speed 31 mph    
Max Gust Speed 40 mph    
Visibility 2 miles    
Events Snow    
Averages and records for this station are not official NWS values.
T = Trace of Precipitation, MM = Missing Value Source: NWS Daily Summary

Daily Weather History Graph

Daily Weather History Graph

Search for Another Location

Airport or City:

Trip Planner

Search our weather history database for the weather conditions in past years. The results will help you decide how hot, cold, wet, or windy it might be!

Date:

Astronomy

Apr. 12, 2013 Rise Set
Actual Time 6:57 AM EDT 8:21 PM EDT
Civil Twilight 6:26 AM EDT 8:51 PM EDT
Nautical Twilight 5:49 AM EDT 9:29 PM EDT
Astronomical Twilight 5:09 AM EDT 10:09 PM EDT
Moon 8:00 AM EDT (4/12) 10:58 PM EDT (4/12)
Length of Visible Light 14h 25m
Length of Day
13h 23m
Waxing Crescent, 5% of the Moon is Illuminated
Apr 12
Waxing Crescent
Apr 18
First Quarter
Apr 25
Full
May 2
Last Quarter
May 9
New

Hourly Weather History & Observations

Time (EDT) Temp. Windchill Dew Point Humidity Pressure Visibility Wind Dir Wind Speed Gust Speed Precip Events Conditions
12:14 AM 29.3 °F 15.6 °F 25.3 °F 85% 29.90 in 1.5 mi ENE 23.0 mph 35.7 mph N/A Snow Light Snow
12:35 AM 29.8 °F 15.2 °F 24.6 °F 81% 29.90 in 4.0 mi East 27.6 mph 40.3 mph N/A Snow Light Snow
12:55 AM 29.3 °F 15.0 °F 24.8 °F 83% 29.88 in 2.0 mi ENE 25.3 mph 39.1 mph N/A Snow Light Snow
1:14 AM 28.9 °F 13.2 °F 25.2 °F 86% 29.88 in 1.2 mi ENE 31.1 mph 40.3 mph N/A Snow Light Snow
1:35 AM 29.3 °F 15.3 °F 25.3 °F 85% 29.85 in 2.5 mi ENE 24.2 mph 35.7 mph N/A Snow Light Snow
1:55 AM 29.3 °F 15.0 °F 25.0 °F 84% 29.85 in 2.0 mi ENE 25.3 mph 34.5 mph N/A Snow Light Snow
2:15 AM 29.5 °F 16.2 °F 24.3 °F 81% 29.83 in 2.0 mi East 21.9 mph 35.7 mph N/A Snow Light Snow
2:35 AM 29.7 °F 16.1 °F 23.5 °F 78% 29.82 in 2.0 mi East 23.0 mph 39.1 mph N/A Snow Light Snow
2:55 AM 29.5 °F 16.5 °F 23.9 °F 80% 29.79 in 2.0 mi East 20.7 mph 38.0 mph N/A Snow Light Snow
3:15 AM 29.3 °F 16.2 °F 24.4 °F 82% 29.79 in 2.5 mi East 20.7 mph 29.9 mph N/A Snow Light Snow
3:35 AM 29.3 °F 15.0 °F 24.3 °F 81% 29.79 in 2.5 mi East 25.3 mph 33.4 mph N/A Snow Light Snow
3:55 AM 29.3 °F 14.5 °F 23.9 °F 80% 29.78 in 2.0 mi East 27.6 mph 35.7 mph N/A Snow Light Snow
4:15 AM 28.8 °F 15.2 °F 24.8 °F 85% 29.76 in 1.0 mi East 21.9 mph 35.7 mph N/A Snow Light Snow
4:35 AM 28.8 °F 15.2 °F 25.7 °F 88% 29.76 in 0.8 mi East 21.9 mph 35.7 mph N/A Snow Snow
4:55 AM 28.6 °F 15.3 °F 25.9 °F 90% 29.73 in 0.8 mi ENE 20.7 mph 36.8 mph N/A Snow Snow
5:15 AM 28.9 °F 15.4 °F 26.2 °F 90% 29.75 in 0.8 mi ENE 21.9 mph 32.2 mph N/A Snow Snow
5:35 AM 28.9 °F 16.1 °F 26.4 °F 90% 29.74 in 0.8 mi East 19.6 mph 28.8 mph N/A Snow Snow
5:55 AM 29.1 °F 16.0 °F 26.4 °F 90% 29.72 in 1.0 mi East 20.7 mph 29.9 mph N/A Snow Light Snow
6:15 AM 29.3 °F 15.3 °F 26.6 °F 90% 29.71 in 1.0 mi East 24.2 mph 34.5 mph N/A Snow Light Snow
6:35 AM 29.3 °F 17.0 °F 26.6 °F 90% 29.70 in 1.2 mi East 18.4 mph 31.1 mph N/A Snow Light Snow
6:54 AM 29.3 °F 15.3 °F 26.6 °F 90% 29.69 in 1.8 mi ENE 24.2 mph 33.4 mph N/A Snow Light Snow
7:15 AM 29.7 °F 16.4 °F 26.4 °F 88% 29.70 in 1.8 mi East 21.9 mph 32.2 mph N/A   Overcast
7:35 AM 29.3 °F 15.6 °F 26.2 °F 88% 29.69 in 1.0 mi ENE 23.0 mph 32.2 mph N/A Snow Light Snow
7:54 AM 29.5 °F 15.3 °F 26.1 °F 87% 29.68 in 2.5 mi ENE 25.3 mph 32.2 mph N/A   Overcast
8:15 AM 29.7 °F 16.1 °F 25.7 °F 85% 29.68 in 2.5 mi ENE 23.0 mph 28.8 mph N/A   Overcast
8:34 AM 29.7 °F 16.1 °F 25.7 °F 85% 29.68 in 4.0 mi ENE 23.0 mph 29.9 mph N/A   Haze
8:55 AM 29.8 °F 17.0 °F 25.7 °F 85% 29.68 in 4.0 mi ENE 20.7 mph 28.8 mph N/A   Haze
9:15 AM 29.8 °F 17.3 °F 25.7 °F 85% 29.67 in 3.0 mi East 19.6 mph 28.8 mph N/A   Overcast
9:34 AM 29.8 °F 17.3 °F 26.1 °F 86% 29.66 in 2.0 mi ENE 19.6 mph 29.9 mph N/A   Overcast
9:55 AM 29.7 °F 16.7 °F 26.2 °F 87% 29.65 in 1.8 mi ENE 20.7 mph 27.6 mph N/A   Overcast
10:15 AM 29.8 °F 16.6 °F 26.6 °F 88% 29.65 in 1.8 mi ENE 21.9 mph 26.5 mph N/A   Overcast
10:55 AM 29.8 °F 17.3 °F 26.6 °F 88% 29.65 in 2.0 mi ENE 19.6 mph 24.2 mph N/A   Overcast
11:14 AM 30.2 °F 18.5 °F 27.5 °F 90% 29.65 in 1.5 mi ENE 17.3 mph 20.7 mph N/A   Overcast
11:35 AM 30.6 °F 20.7 °F 27.9 °F 90% 29.65 in 1.8 mi ENE 12.7 mph 21.9 mph N/A   Overcast
11:55 AM 30.9 °F 19.4 °F 28.4 °F 90% 29.66 in 1.2 mi East 17.3 mph 23.0 mph N/A   Overcast
12:14 PM 31.1 °F 20.5 °F 28.4 °F 90% 29.66 in 1.2 mi ENE 15.0 mph - N/A   Overcast
12:35 PM 31.1 °F 20.1 °F 28.4 °F 90% 29.66 in 1.2 mi ENE 16.1 mph 20.7 mph N/A   Overcast
12:55 PM 31.1 °F 20.5 °F 28.4 °F 90% 29.65 in 1.0 mi ENE 15.0 mph - N/A   Overcast
1:15 PM 31.5 °F 20.9 °F 29.1 °F 91% 29.65 in 1.2 mi ENE 15.0 mph - N/A   Overcast
1:35 PM 31.6 °F 20.7 °F 29.1 °F 90% 29.64 in 1.5 mi ENE 16.1 mph 21.9 mph N/A   Overcast
1:54 PM 31.6 °F 20.4 °F 29.1 °F 90% 29.64 in 2.0 mi ENE 17.3 mph - N/A   Overcast
2:15 PM 31.8 °F 21.4 °F 28.9 °F 89% 29.64 in 1.5 mi ENE 15.0 mph 20.7 mph N/A Snow Light Snow
2:35 PM 32.0 °F 22.1 °F 28.9 °F 88% 29.64 in 1.5 mi ENE 13.8 mph 19.6 mph N/A Snow Light Snow
2:55 PM 31.8 °F 21.8 °F 28.8 °F 88% 29.65 in 0.8 mi ENE 13.8 mph 19.6 mph N/A Snow Light Snow
3:15 PM 31.8 °F 21.4 °F 28.9 °F 89% 29.65 in 1.5 mi ENE 15.0 mph - N/A Snow Light Snow
3:35 PM 31.8 °F 22.3 °F 28.9 °F 89% 29.65 in 1.2 mi ENE 12.7 mph 18.4 mph N/A Snow Light Snow
3:55 PM 32.0 °F 22.1 °F 28.8 °F 88% 29.65 in 2.0 mi ENE 13.8 mph 17.3 mph N/A   Overcast
4:15 PM 31.8 °F 21.8 °F 28.4 °F 87% 29.65 in 2.0 mi ENE 13.8 mph - N/A Snow Light Snow
4:35 PM 31.8 °F 23.3 °F 28.4 °F 87% 29.65 in 2.5 mi ENE 10.4 mph - N/A Snow Light Snow
4:55 PM 32.0 °F 23.0 °F 28.4 °F 87% 29.65 in 1.5 mi East 11.5 mph - N/A   Overcast
5:14 PM 32.0 °F 23.6 °F 28.9 °F 88% 29.65 in 1.2 mi East 10.4 mph - N/A Snow Light Snow
5:35 PM 32.0 °F 24.2 °F 29.1 °F 89% 29.65 in 1.8 mi ENE 9.2 mph - N/A Snow Light Snow
5:55 PM 32.0 °F 23.6 °F 28.9 °F 88% 29.66 in 3.0 mi East 10.4 mph - N/A   Overcast
6:14 PM 32.0 °F 23.6 °F 28.8 °F 88% 29.66 in 3.0 mi ENE 10.4 mph - N/A   Overcast
6:35 PM 32.0 °F 23.6 °F 28.6 °F 87% 29.67 in 2.5 mi East 10.4 mph - N/A   Overcast
6:55 PM 31.8 °F 23.3 °F 28.9 °F 89% 29.67 in 1.5 mi ENE 10.4 mph - N/A Snow Light Snow
7:14 PM 31.8 °F 23.3 °F 29.1 °F 90% 29.67 in 1.2 mi ENE 10.4 mph - N/A Snow Light Snow
7:35 PM 31.8 °F 23.3 °F 29.3 °F 90% 29.68 in 1.2 mi ENE 10.4 mph - N/A Snow Light Snow
7:55 PM 31.8 °F 24.6 °F 29.3 °F 90% 29.68 in 1.8 mi ENE 8.1 mph - N/A Snow Light Snow
8:15 PM 31.8 °F 24.6 °F 29.3 °F 90% 29.68 in 2.0 mi East 8.1 mph - N/A Snow Light Snow
8:35 PM 31.8 °F 24.6 °F 29.3 °F 90% 29.68 in 3.0 mi East 8.1 mph - N/A Snow Light Snow
8:55 PM 31.8 °F 25.4 °F 29.3 °F 90% 29.68 in 2.5 mi ENE 6.9 mph - N/A Snow Light Snow
9:15 PM 31.8 °F 25.4 °F 29.3 °F 90% 29.68 in 2.0 mi East 6.9 mph - N/A Snow Light Snow
9:34 PM 31.8 °F 25.4 °F 29.7 °F 92% 29.68 in 2.5 mi ENE 6.9 mph - N/A Snow Light Snow
9:55 PM 31.8 °F 24.6 °F 29.7 °F 92% 29.68 in 3.0 mi ENE 8.1 mph - N/A Snow Light Snow
10:15 PM 31.8 °F 25.4 °F 29.7 °F 92% 29.68 in 3.0 mi ENE 6.9 mph - N/A Snow Light Snow
10:35 PM 31.8 °F 25.4 °F 29.7 °F 92% 29.68 in 4.0 mi ENE 6.9 mph - N/A Snow Light Snow
10:55 PM 32.0 °F 27.5 °F 29.7 °F 91% 29.69 in 3.0 mi East 4.6 mph - N/A Snow Light Snow
11:15 PM 32.0 °F 25.6 °F 29.8 °F 92% 29.68 in 2.0 mi ENE 6.9 mph - N/A Snow Light Snow
11:35 PM 32.0 °F 25.6 °F 29.8 °F 92% 29.68 in 3.0 mi ENE 6.9 mph - N/A Snow Light Snow
11:55 PM 32.0 °F 25.6 °F 29.8 °F 92% 29.68 in 2.0 mi East 6.9 mph - N/A Snow Light Snow